• In Netherlands
  • List of Countries
  • For 7 days
  • Water Temperature
  • Satellite Maps
  • Weather Map
  • Weather Widgets
  • user-avatar
    Login

    Hourly Weather Wavre

    Today, 19 February, Sunday

    Time Temperature Precipitation Wind Pressure Humidity
    00:00 +2°C° 0 mm 3 mps 763 mmHg 89%
    01:00 +2°C° 0 mm 3 mps 762 mmHg 90%
    02:00 +1°C° 0 mm 3 mps 762 mmHg 91%
    03:00 +1°C° 0 mm 3 mps 762 mmHg 92%
    04:00 +1°C° 0 mm 3 mps 761 mmHg 92%
    05:00 +1°C° 0 mm 3 mps 761 mmHg 93%
    06:00 +1°C° 0 mm 3 mps 762 mmHg 93%
    07:00 +1°C° 0 mm 4 mps 761 mmHg 90%
    08:00 +3°C° 0 mm 4 mps 761 mmHg 87%
    09:00 +3°C° 0 mm 5 mps 761 mmHg 84%
    10:00 +5°C° 0 mm 5 mps 761 mmHg 82%
    11:00 +7°C° 0 mm 5 mps 761 mmHg 79%
    12:00 +8°C° 0 mm 6 mps 761 mmHg 77%
    13:00 +8°C° 0 mm 5 mps 760 mmHg 81%
    14:00 +7°C° 0 mm 4 mps 760 mmHg 84%
    15:00 +7°C° 0 mm 4 mps 760 mmHg 87%
    16:00 +7°C° 0 mm 3 mps 760 mmHg 90%
    17:00 +7°C° 0 mm 3 mps 760 mmHg 93%
    18:00 +6°C° 0 mm 2 mps 760 mmHg 96%
    19:00 +6°C° 0 mm 2 mps 760 mmHg 96%
    20:00 +5°C° 0 mm 2 mps 760 mmHg 96%
    21:00 +4°C° 0 mm 3 mps 761 mmHg 97%
    22:00 +4°C° 0 mm 3 mps 761 mmHg 97%
    23:00 +4°C° 0 mm 3 mps 761 mmHg 97%

    Tomorrow, 20 February, Monday

    Time Temperature Precipitation Wind Pressure Humidity
    00:00 +4°C° 0 mm 3 mps 760 mmHg 97%
    01:00 +4°C° 0 mm 3 mps 760 mmHg 97%
    02:00 +4°C° 0 mm 4 mps 760 mmHg 97%
    03:00 +4°C° 0 mm 4 mps 760 mmHg 97%
    04:00 +5°C° 0 mm 4 mps 759 mmHg 97%
    05:00 +5°C° 0 mm 4 mps 759 mmHg 96%
    06:00 +5°C° 0 mm 4 mps 759 mmHg 96%
    07:00 +6°C° 0 mm 5 mps 759 mmHg 95%
    08:00 +6°C° 0 mm 5 mps 759 mmHg 94%
    09:00 +7°C° 0 mm 6 mps 758 mmHg 93%
    10:00 +7°C° 0.3 mm 6 mps 758 mmHg 93%
    11:00 +8°C° 0.3 mm 6 mps 758 mmHg 93%
    12:00 +8°C° 0.3 mm 6 mps 758 mmHg 92%
    13:00 +8°C° 0.6 mm 6 mps 757 mmHg 93%
    14:00 +8°C° 0.6 mm 6 mps 757 mmHg 94%
    15:00 +8°C° 0.6 mm 5 mps 756 mmHg 95%
    16:00 +9°C° 0.1 mm 5 mps 756 mmHg 96%
    17:00 +9°C° 0.1 mm 5 mps 756 mmHg 96%
    18:00 +9°C° 0.1 mm 5 mps 756 mmHg 97%
    19:00 +9°C° 0.1 mm 5 mps 756 mmHg 97%
    20:00 +9°C° 0.1 mm 5 mps 756 mmHg 97%
    21:00 +9°C° 0.1 mm 5 mps 756 mmHg 97%
    22:00 +9°C° 0.2 mm 5 mps 756 mmHg 96%
    23:00 +9°C° 0.2 mm 5 mps 756 mmHg 96%

    Day after tomorrow, 21 February, Tuesday

    Time Temperature Precipitation Wind Pressure Humidity
    00:00 +9°C° 0.2 mm 6 mps 756 mmHg 96%
    01:00 +9°C° 0.4 mm 5 mps 756 mmHg 96%
    02:00 +9°C° 0.4 mm 5 mps 756 mmHg 96%
    03:00 +9°C° 0.4 mm 5 mps 756 mmHg 96%
    04:00 +8°C° 0.1 mm 5 mps 756 mmHg 96%
    05:00 +8°C° 0.1 mm 4 mps 756 mmHg 97%
    06:00 +8°C° 0.1 mm 4 mps 756 mmHg 97%
    07:00 +8°C° 0.1 mm 4 mps 756 mmHg 96%
    08:00 +8°C° 0.1 mm 4 mps 756 mmHg 95%
    09:00 +10°C° 0.1 mm 4 mps 757 mmHg 94%
    10:00 +10°C° 0.4 mm 4 mps 756 mmHg 94%
    11:00 +9°C° 0.4 mm 5 mps 756 mmHg 93%
    12:00 +9°C° 0.4 mm 5 mps 756 mmHg 93%
    13:00 +9°C° 0.4 mm 6 mps 756 mmHg 93%
    14:00 +9°C° 0.4 mm 6 mps 755 mmHg 93%
    15:00 +9°C° 0.4 mm 6 mps 755 mmHg 93%
    16:00 +9°C° 0.1 mm 6 mps 755 mmHg 93%
    17:00 +9°C° 0.1 mm 7 mps 755 mmHg 93%
    18:00 +9°C° 0.1 mm 7 mps 755 mmHg 93%
    19:00 +9°C° 0.1 mm 7 mps 755 mmHg 93%
    20:00 +9°C° 0.1 mm 7 mps 755 mmHg 92%
    21:00 +9°C° 0.1 mm 7 mps 754 mmHg 91%
    22:00 +7°C° 0.1 mm 8 mps 754 mmHg 91%
    23:00 +7°C° 0.1 mm 8 mps 754 mmHg 91%

    22 February, Wednesday

    Time Temperature Precipitation Wind Pressure Humidity
    00:00 +7°C° 0.1 mm 8 mps 753 mmHg 91%
    01:00 +7°C° 0.1 mm 8 mps 753 mmHg 91%
    02:00 +7°C° 0.1 mm 8 mps 752 mmHg 91%
    03:00 +9°C° 0.1 mm 8 mps 751 mmHg 91%
    04:00 +7°C° 0 mm 9 mps 751 mmHg 90%
    05:00 +7°C° 0 mm 9 mps 751 mmHg 89%
    06:00 +7°C° 0 mm 10 mps 750 mmHg 88%
    07:00 +7°C° 0.1 mm 10 mps 750 mmHg 87%
    08:00 +7°C° 0.1 mm 10 mps 750 mmHg 87%
    09:00 +7°C° 0.1 mm 11 mps 749 mmHg 86%
    10:00 +8°C° 0.5 mm 11 mps 749 mmHg 87%
    11:00 +8°C° 0.5 mm 10 mps 749 mmHg 88%
    12:00 +8°C° 0.5 mm 10 mps 750 mmHg 89%
    13:00 +8°C° 0.8 mm 9 mps 750 mmHg 88%
    14:00 +7°C° 0.8 mm 8 mps 750 mmHg 87%
    15:00 +8°C° 0.8 mm 7 mps 750 mmHg 86%
    16:00 +8°C° 0.1 mm 6 mps 750 mmHg 87%
    17:00 +7°C° 0.1 mm 5 mps 751 mmHg 88%
    18:00 +6°C° 0.1 mm 4 mps 751 mmHg 89%
    19:00 +6°C° 0 mm 4 mps 751 mmHg 89%
    20:00 +6°C° 0 mm 4 mps 752 mmHg 89%
    21:00 +5°C° 0 mm 4 mps 752 mmHg 89%
    22:00 +5°C° 0 mm 4 mps 752 mmHg 90%
    23:00 +5°C° 0 mm 4 mps 753 mmHg 91%

    23 February, Thursday

    Time Temperature Precipitation Wind Pressure Humidity
    00:00 +3°C° 0 mm 5 mps 753 mmHg 91%
    01:00 +3°C° 0 mm 5 mps 753 mmHg 92%
    02:00 +3°C° 0 mm 5 mps 752 mmHg 92%
    03:00 +3°C° 0 mm 5 mps 752 mmHg 93%
    04:00 +3°C° 0.1 mm 6 mps 751 mmHg 93%
    05:00 +4°C° 0.1 mm 6 mps 751 mmHg 94%
    06:00 +5°C° 0.1 mm 7 mps 750 mmHg 94%
    07:00 +6°C° 0.4 mm 8 mps 750 mmHg 93%
    08:00 +7°C° 0.4 mm 9 mps 749 mmHg 91%
    09:00 +8°C° 0.4 mm 10 mps 748 mmHg 90%
    10:00 +8°C° 0.3 mm 10 mps 748 mmHg 90%
    11:00 +8°C° 0.3 mm 10 mps 747 mmHg 89%
    12:00 +9°C° 0.3 mm 10 mps 747 mmHg 89%
    13:00 +8°C° 0.1 mm 10 mps 746 mmHg 87%
    14:00 +8°C° 0.1 mm 11 mps 745 mmHg 86%
    15:00 +8°C° 0.1 mm 11 mps 745 mmHg 85%
    16:00 +8°C° 0.3 mm 11 mps 745 mmHg 86%
    17:00 +8°C° 0.3 mm 10 mps 744 mmHg 88%
    18:00 +8°C° 0.3 mm 10 mps 744 mmHg 89%
    19:00 +7°C° 0.5 mm 10 mps 745 mmHg 86%
    20:00 +6°C° 0.5 mm 9 mps 746 mmHg 83%
    21:00 +5°C° 0.5 mm 8 mps 746 mmHg 81%
    22:00 +4°C° 0.1 mm 8 mps 747 mmHg 82%
    23:00 +4°C° 0.1 mm 7 mps 748 mmHg 83%

    24 February, Friday

    Time Temperature Precipitation Wind Pressure Humidity
    00:00 +4°C° 0.1 mm 6 mps 748 mmHg 85%
    01:00 +3°C° 0.2 mm 6 mps 749 mmHg 86%
    02:00 +3°C° 0.2 mm 6 mps 750 mmHg 87%
    03:00 +3°C° 0.2 mm 5 mps 750 mmHg 88%
    04:00 +3°C° 0.3 mm 5 mps 751 mmHg 88%
    05:00 +2°C° 0.3 mm 5 mps 752 mmHg 88%
    06:00 +3°C° 0.3 mm 4 mps 752 mmHg 89%
    07:00 +2°C° 0.1 mm 5 mps 753 mmHg 86%
    08:00 +3°C° 0.1 mm 5 mps 754 mmHg 84%
    09:00 +3°C° 0.1 mm 6 mps 754 mmHg 82%
    10:00 +4°C° 0.1 mm 6 mps 755 mmHg 77%
    11:00 +4°C° 0.1 mm 6 mps 755 mmHg 73%
    12:00 +5°C° 0.1 mm 6 mps 755 mmHg 69%
    13:00 +5°C° 0 mm 6 mps 756 mmHg 68%
    14:00 +7°C° 0 mm 5 mps 756 mmHg 67%
    15:00 +7°C° 0 mm 5 mps 756 mmHg 66%
    16:00 +6°C° 0 mm 5 mps 756 mmHg 72%
    17:00 +5°C° 0 mm 4 mps 756 mmHg 78%
    18:00 +4°C° 0 mm 4 mps 757 mmHg 84%
    19:00 +5°C° 0.1 mm 4 mps 757 mmHg 85%
    20:00 +5°C° 0.1 mm 5 mps 757 mmHg 86%
    21:00 +4°C° 0.1 mm 6 mps 756 mmHg 86%
    22:00 +5°C° 0.1 mm 6 mps 756 mmHg 88%
    23:00 +5°C° 0.1 mm 7 mps 756 mmHg 90%
    Show more